User: anonymous   Login
Location: Unspecified
(0.0000°N, 0.0000°E)
Time: 11:24:45
(UTC+02:00)
Language:

Cosmos 773 Rocket - Orbit

View from above orbital plane
View from above orbital plane
View from above satellite
View from above satellite

Ground track
Ground track

The orbit data is extracted from the following two-line orbital elements,

1 08344U 75094B   15090.69162829  .00000354  00000-0  12314-3 0  9998
2 08344 074.0585 175.2512 0023136 278.9991 080.8545 14.38933413 69388
Epoch (UTC): 31 March 2015 16:35:56
Eccentricity: 0.0023136
inclination: 74.0585°
perigee height: 745 km
apogee height: 778 km
right ascension of ascending node: 175.2512°
argument of perigee: 278.9991°
revolutions per day: 14.38933413
mean anomaly at epoch: 80.8545°
orbit number at epoch: 6938

The dashed part of the orbit path shows where the satellite is in the earth's shadow,  

DLR